Baku, Azerbaijan

12:30 PM +04 on June 21, 2018 (GMT +0400)
Bina

Weather History for UBBB - March, 2018

Change the Weather History Date:

Monday, March 19, 2018

  Actual Average Record
Temperature  
Mean Temperature 52 °F -  
Max Temperature 57 °F - - ()
Min Temperature 46 °F - - ()
Degree Days  
Heating Degree Days 14    
Growing Degree Days 2 (Base 50)    
Moisture  
Dew Point 48 °F    
Average Humidity 84    
Maximum Humidity 100    
Minimum Humidity 64    
Precipitation  
Precipitation 0.00 in - - ()
Sea Level Pressure  
Sea Level Pressure 29.85 in    
Wind  
Wind Speed 17 mph ()    
Max Wind Speed 27 mph    
Max Gust Speed 38 mph    
Visibility 6.1 miles    
Events      
T = Trace of Precipitation, MM = Missing Value Source: Averaged Metar Reports

Daily Weather History Graph

Daily Weather History Graph

Search for Another Location

Airport or City:

Astronomy

Mar. 19, 2018 Rise Set
Actual Time 6:45 AM +04 6:50 PM +04
Civil Twilight 6:18 AM +04 7:17 PM +04
Nautical Twilight 5:46 AM +04 7:49 PM +04
Astronomical Twilight 5:14 AM +04 8:21 PM +04
Moon 7:58 AM +04 (3/19) 8:50 PM +04 (3/19)
Length of Visible Light 12h 59m
Length of Day
12h 05m
Waxing Crescent, 4% of the Moon is Illuminated
Mar 19
Waxing Crescent
Mar 24
First Quarter
Mar 31
Full
Apr 8
Last Quarter
Apr 16
New

Hourly Weather History & Observations

Time (+04) Temp. Dew Point Humidity Pressure Visibility Wind Dir Wind Speed Gust Speed Precip Events Conditions
12:00 AM 48.2 °F 46.4 °F 93% 29.95 in 6.2 mi South 17.3 mph - N/A   Partly Cloudy
12:30 AM 48.2 °F 46.4 °F 93% 29.92 in - South 15.0 mph - N/A   Clear
1:00 AM 47 °F 45 °F 92% 29.93 in 6 mi SSE 17.9 mph - -   Overcast
1:00 AM 50.0 °F 46.4 °F 87% 29.92 in - South 13.8 mph - N/A   Clear
1:30 AM 48.2 °F 46.4 °F 93% 29.92 in - South 15.0 mph - N/A   Clear
2:00 AM 48.2 °F 46.4 °F 93% 29.92 in - South 13.8 mph - N/A   Clear
2:30 AM 48.2 °F 46.4 °F 93% 29.92 in - South 16.1 mph - N/A   Clear
3:00 AM 48.2 °F 46.4 °F 93% 29.89 in - South 15.0 mph - N/A   Clear
3:30 AM 48.2 °F 46.4 °F 93% 29.89 in - South 17.3 mph - N/A   Clear
4:00 AM 48 °F 45 °F 86% 29.89 in 6 mi SSE 20.1 mph - -   Overcast
4:00 AM 50.0 °F 46.4 °F 87% 29.89 in - South 15.0 mph - N/A   Clear
4:30 AM 50.0 °F 46.4 °F 87% 29.89 in - South 16.1 mph - N/A   Clear
5:00 AM 50.0 °F 46.4 °F 87% 29.89 in - South 20.7 mph - N/A   Clear
5:30 AM 50.0 °F 46.4 °F 87% 29.89 in - South 17.3 mph - N/A   Clear
6:00 AM 48.2 °F 46.4 °F 93% 29.89 in - South 15.0 mph - N/A   Clear
6:30 AM 48.2 °F 46.4 °F 93% 29.89 in - South 16.1 mph - N/A   Clear
7:00 AM 47 °F 45 °F 89% 29.88 in 6 mi SE 15.7 mph - -   Overcast
7:00 AM 48.2 °F 46.4 °F 93% 29.89 in - South 17.3 mph - N/A   Clear
7:30 AM 48.2 °F 46.4 °F 93% 29.89 in 6.2 mi South 16.1 mph - N/A   Mostly Cloudy
8:00 AM 48.2 °F 48.2 °F 100% 29.89 in 6.2 mi South 12.7 mph - N/A   Mostly Cloudy
8:30 AM 50.0 °F 48.2 °F 94% 29.89 in 6.2 mi South 19.6 mph - N/A   Mostly Cloudy
9:00 AM 50.0 °F 48.2 °F 94% 29.89 in 6.2 mi South 18.4 mph - N/A   Mostly Cloudy
9:30 AM 51.8 °F 50.0 °F 94% 29.89 in 6.2 mi South 23.0 mph 34.5 mph N/A   Mostly Cloudy
10:00 AM 53 °F 49 °F 84% 29.88 in 6 mi SE 17.9 mph - -   Mostly Cloudy
10:00 AM 53.6 °F 50.0 °F 88% 29.89 in 6.2 mi South 23.0 mph - N/A   Mostly Cloudy
10:30 AM 53.6 °F 50.0 °F 88% 29.89 in 6.2 mi South 24.2 mph - N/A   Mostly Cloudy
11:00 AM 53.6 °F 50.0 °F 88% 29.89 in 6.2 mi South 24.2 mph 35.7 mph N/A   Mostly Cloudy
11:30 AM 55.4 °F 50.0 °F 82% 29.89 in 6.2 mi South 23.0 mph 34.5 mph N/A   Mostly Cloudy
12:00 PM 55.4 °F 50.0 °F 82% 29.89 in 6.2 mi South 23.0 mph 34.5 mph N/A   Mostly Cloudy
12:30 PM 55.4 °F 50.0 °F 82% 29.86 in 6.2 mi South 26.5 mph - N/A   Mostly Cloudy
1:00 PM 56 °F 50 °F 73% 29.88 in 6 mi SE 22.4 mph - -   Mostly Cloudy
1:00 PM 57.2 °F 50.0 °F 77% 29.86 in 6.2 mi South 26.5 mph 38.0 mph N/A   Mostly Cloudy
1:30 PM 55.4 °F 50.0 °F 82% 29.86 in 6.2 mi South 26.5 mph - N/A   Mostly Cloudy
2:00 PM 55.4 °F 50.0 °F 82% 29.86 in 6.2 mi South 21.9 mph 33.4 mph N/A   Mostly Cloudy
2:30 PM 55.4 °F 50.0 °F 82% 29.83 in - South 23.0 mph - N/A   Clear
3:00 PM 55.4 °F 50.0 °F 82% 29.83 in - South 25.3 mph - N/A   Clear
3:30 PM 53.6 °F 50.0 °F 88% 29.83 in - South 18.4 mph - N/A   Clear
4:00 PM 58 °F 49 °F 64% 29.82 in 6 mi SSE 24.6 mph - -   Mostly Cloudy
4:00 PM 57.2 °F 48.2 °F 72% 29.80 in - South 23.0 mph - N/A   Clear
4:30 PM 57.2 °F 50.0 °F 77% 29.80 in - South 23.0 mph - N/A   Clear
5:00 PM 55.4 °F 48.2 °F 77% 29.80 in - South 23.0 mph - N/A   Clear
5:30 PM 53.6 °F 48.2 °F 82% 29.80 in - South 23.0 mph - N/A   Clear
6:00 PM 53.6 °F 48.2 °F 82% 29.77 in - SSE 17.3 mph - N/A   Clear
6:30 PM 53.6 °F 48.2 °F 82% 29.77 in - South 20.7 mph - N/A   Clear
7:00 PM 52 °F 46 °F 75% 29.79 in 6 mi SSE 17.9 mph - -   Mostly Cloudy
7:00 PM 53.6 °F 48.2 °F 82% 29.77 in - South 24.2 mph - N/A   Clear
7:30 PM 55.4 °F 46.4 °F 72% 29.77 in - South 20.7 mph - N/A   Clear
8:00 PM 53.6 °F 46.4 °F 77% 29.77 in - South 20.7 mph - N/A   Clear
8:30 PM 53.6 °F 46.4 °F 77% 29.77 in - South 19.6 mph - N/A   Clear
9:00 PM 55.4 °F 46.4 °F 72% 29.74 in - South 25.3 mph 38.0 mph N/A   Clear
9:30 PM 53.6 °F 46.4 °F 77% 29.77 in - SSW 23.0 mph 34.5 mph N/A   Clear
10:00 PM 53 °F 45 °F 67% 29.78 in 6 mi SSE 26.8 mph - -   Mostly Cloudy
10:00 PM 53.6 °F 46.4 °F 77% 29.77 in - SSW 20.7 mph - N/A   Clear
10:30 PM 53.6 °F 44.6 °F 72% 29.77 in - SW 18.4 mph - N/A   Clear
11:00 PM 53.6 °F 42.8 °F 67% 29.83 in - West 8.1 mph - N/A   Clear
11:30 PM 53.6 °F 46.4 °F 77% 29.86 in - WNW 10.4 mph - N/A   Clear